Voltar ao catálogo

OPS 0856 DEB

LostPO
NORAD 24647·DEBRIS·🇺🇸 United States

Lançado Aug 19, 1966 de Vandenberg Space Force Base

Loading…

Próximas Passagens (próximas 24 horas)

TLE

ObsoletoSource: Space-Track

Época: Aug 4, 2026, 11:49 UTC

1 24647U 66077P   26216.49278785  .00002111  00000-0  18683-1 0  9998
2 24647  87.4061  48.4594 2195046 315.4885  48.1252  9.44529994573244

Acompanhe OPS 0856 DEB em tempo real com AllMySat

Download on the App Store